Wind_Speed
21 21 20 20 20 21 21 21 20 20 20 21 20 20 20 20 20 19 19 19 20 21 21 21 21 20 19 19 19 19 18 17 16 16 15 16 17 17 18 17 18 18 18 17 18 21 23 24 24 24 22 20 17 15 12 10 9 7 6 3 2 3 2 4 8 12 14 18 19 17 17 16 15 16 14 12 11 10 11 13 13 12 12 12 11 11 13 14
22 22 22 21 21 21 21 22 22 22 22 22 22 22 21 21 21 21 20 20 20 21 21 22 22 22 21 21 20 20 19 18 17 16 16 17 17 18 18 18 18 19 19 18 17 17 18 21 23 24 24 23 20 18 15 13 11 8 7 5 4 3 3 6 8 11 16 18 17 17 18 17 15 14 14 13 12 11 10 12 13 13 13 12 12 12 12 13
23 23 22 22 23 23 23 22 22 23 23 23 24 24 23 23 22 22 22 22 21 21 21 22 22 23 23 22 22 21 20 20 19 17 17 18 18 18 18 18 19 19 19 19 17 15 14 15 18 21 23 23 21 20 18 15 12 9 8 7 5 6 5 6 9 13 16 17 17 17 19 18 15 14 13 13 12 11 10 12 13 13 13 13 12 12 11 12
24 24 23 23 23 23 24 24 24 23 23 24 25 25 25 24 24 24 23 23 23 22 21 21 22 23 23 23 23 22 22 22 20 18 18 19 19 18 18 18 19 19 20 19 18 15 12 12 14 16 19 20 20 21 20 17 15 12 10 7 6 7 7 7 9 14 16 16 16 16 18 18 15 14 13 13 13 12 11 12 14 13 13 14 13 12 12 13
25 25 25 25 24 24 24 24 25 25 25 25 25 26 26 26 26 25 25 24 24 23 23 22 22 23 23 24 24 24 24 23 22 20 20 20 19 18 18 19 20 20 20 20 19 17 15 13 13 14 15 16 17 20 20 19 17 14 13 11 9 9 8 8 9 14 16 15 16 16 17 17 13 13 13 13 13 13 12 12 13 14 13 14 15 14 14 14
26 26 26 26 26 26 25 25 25 26 26 26 26 26 27 27 27 27 26 26 25 24 24 23 23 23 23 24 25 25 25 23 22 22 21 20 20 19 18 19 20 21 21 20 20 20 18 15 14 14 13 14 16 18 19 20 18 15 14 13 12 11 10 9 9 14 16 15 17 16 17 16 12 13 14 12 11 12 13 12 13 13 13 13 15 15 15 15
26 26 27 27 27 27 27 27 27 27 27 27 27 27 28 28 28 28 28 27 27 26 25 25 24 23 23 24 24 25 26 24 23 23 22 22 21 20 19 20 20 21 21 21 22 22 20 18 16 15 14 15 16 17 18 19 20 18 15 14 14 12 11 11 10 14 15 16 16 15 16 15 13 14 14 11 10 11 14 14 14 14 14 14 15 15 15 15
26 26 27 27 27 28 28 28 28 28 28 28 28 28 29 29 29 29 29 29 28 27 27 26 25 25 24 24 24 25 26 25 25 24 24 23 22 22 21 20 21 22 22 22 23 23 22 21 19 17 17 17 17 17 18 19 21 21 16 14 16 14 12 11 11 12 14 16 16 16 16 14 14 14 14 12 12 12 13 15 15 15 15 15 14 14 14 14
25 26 26 27 27 27 28 28 29 29 30 30 30 30 30 30 31 30 30 30 29 29 28 27 27 26 26 25 25 26 25 25 26 25 25 24 23 23 23 22 23 23 23 23 23 24 24 23 22 21 19 18 18 17 18 19 21 22 18 15 17 16 14 13 12 11 12 15 16 19 19 15 14 15 14 14 12 12 14 15 16 16 16 16 15 14 14 14
23 24 25 25 26 26 27 28 29 29 30 31 31 31 31 31 32 32 32 31 31 30 29 29 28 28 28 27 27 27 24 25 26 25 26 25 24 24 24 25 24 23 23 23 24 25 25 25 24 22 18 16 17 17 18 19 20 21 19 18 18 17 16 15 13 10 10 12 14 18 18 15 15 15 15 14 12 12 14 15 17 17 17 16 15 14 14 14
21 21 22 23 23 24 25 26 27 28 29 30 31 31 32 33 33 33 33 32 32 31 31 30 30 30 29 29 29 27 24 25 25 25 26 26 26 25 26 26 26 25 24 24 25 26 26 26 24 21 19 17 17 17 17 18 19 20 20 19 19 19 18 17 15 11 10 11 12 16 17 15 16 16 16 15 12 13 14 15 17 17 17 17 16 15 14 14
18 19 20 21 21 22 23 24 25 26 28 28 29 31 32 33 33 34 34 34 33 33 32 31 31 31 31 31 31 26 25 26 24 25 26 26 26 26 27 27 27 27 26 25 26 26 26 25 24 23 19 16 17 17 17 19 20 20 21 20 19 20 20 19 17 12 11 10 11 15 17 16 17 17 17 16 13 13 14 15 16 18 17 17 16 15 15 14
17 18 19 19 20 21 22 23 24 25 26 27 28 29 31 32 33 34 34 35 34 34 33 32 32 32 33 34 31 28 28 27 26 26 26 26 27 27 27 28 28 27 27 26 25 25 25 25 26 25 17 14 16 15 15 20 21 21 22 21 20 20 20 19 18 15 12 9 9 14 17 18 18 18 18 18 16 15 15 14 16 17 18 18 17 15 15 15
15 16 18 18 18 20 21 21 23 24 26 27 28 29 30 32 33 34 34 35 35 35 34 33 33 34 35 34 31 31 31 29 27 27 27 27 27 27 28 28 28 28 27 26 25 24 24 25 27 24 19 16 12 12 16 21 22 22 23 22 21 20 19 18 18 17 13 10 10 12 16 19 21 21 20 19 18 16 16 16 16 17 18 18 17 16 16 15
14 15 17 18 18 18 19 20 21 22 24 26 27 29 30 32 33 34 34 35 35 35 35 35 35 35 35 35 34 34 33 31 30 29 28 28 28 28 28 29 29 29 28 28 26 25 24 26 26 23 22 18 11 11 18 21 22 23 23 23 22 21 19 18 19 19 15 12 12 11 14 18 21 23 22 21 20 17 16 17 17 17 18 18 17 16 16 16
15 15 16 18 19 19 20 20 19 21 23 24 25 28 30 32 33 34 35 36 36 36 36 36 35 35 36 36 36 35 34 34 32 30 29 28 28 28 28 29 29 29 30 29 28 26 26 26 26 25 25 22 16 15 18 21 23 24 23 23 23 21 19 18 20 19 16 15 13 13 13 16 20 23 22 21 19 19 18 17 17 17 19 19 18 17 17 16
17 17 18 19 20 20 21 21 20 20 22 23 24 26 28 31 33 35 36 36 37 37 36 36 36 36 36 35 34 35 36 35 33 32 30 29 29 28 28 28 28 30 31 31 30 29 28 28 28 27 25 24 22 20 20 22 23 23 24 24 23 22 19 18 19 18 17 16 15 15 14 15 20 22 22 22 20 20 19 17 17 18 19 20 19 17 18 18
19 19 20 20 21 22 22 22 21 21 22 23 23 25 27 29 32 34 36 37 38 37 37 37 36 36 37 36 37 38 38 36 35 34 32 31 30 29 29 28 28 29 31 31 32 31 30 29 29 28 27 26 24 22 20 21 22 23 25 24 23 23 21 18 18 19 19 15 14 15 14 13 16 19 21 22 21 20 19 18 19 19 19 20 20 19 18 19
22 22 22 23 23 23 23 24 23 22 23 23 23 25 27 29 31 33 35 36 37 38 38 38 37 37 38 39 40 39 37 36 37 36 34 33 31 30 29 29 28 29 31 32 33 33 32 31 30 31 30 28 26 22 21 22 23 24 26 25 23 22 22 20 18 21 18 13 14 15 13 13 14 18 23 24 22 20 19 20 20 20 20 21 22 20 18 18
24 24 25 25 25 25 25 24 24 24 25 24 24 25 27 29 31 33 34 35 36 38 38 36 36 38 39 39 39 37 36 38 38 37 36 35 33 32 30 30 30 30 31 32 33 34 33 33 32 31 29 29 27 24 24 26 26 26 26 26 21 18 22 22 16 19 18 11 13 16 13 14 16 20 24 25 25 22 22 22 20 21 21 21 22 22 20 19
25 26 26 26 26 26 25 24 24 25 25 25 25 26 27 29 31 32 33 35 36 37 37 37 37 39 40 38 36 36 37 39 39 38 38 36 35 34 32 32 31 31 31 32 33 34 35 34 32 31 30 31 31 29 29 29 27 26 25 25 21 16 21 24 16 16 17 10 10 13 12 14 17 20 24 25 25 23 23 22 19 21 22 22 23 23 22 20
26 27 27 28 28 27 26 25 24 23 24 24 24 26 27 29 31 32 33 34 35 36 36 37 38 39 39 34 33 36 37 38 39 39 38 37 37 35 34 34 32 32 32 33 33 35 36 35 33 32 33 34 35 36 35 30 28 26 24 25 22 17 20 23 19 16 16 11 9 11 12 13 15 19 24 26 26 25 24 22 19 20 22 22 23 23 23 22
29 29 29 30 30 29 27 25 24 22 21 21 23 24 26 28 31 32 32 33 34 35 35 36 38 39 37 34 35 37 37 38 39 39 38 38 38 38 37 36 34 34 34 33 32 34 35 35 34 35 35 38 38 37 33 28 27 27 25 23 22 19 16 17 20 21 18 14 10 12 13 14 17 20 24 27 28 27 25 24 23 22 23 23 23 24 24 23
30 30 31 31 30 29 27 24 22 21 20 19 20 21 23 25 28 30 31 32 33 33 33 35 37 37 38 38 37 36 37 40 40 40 40 39 40 40 38 37 36 36 35 34 32 32 34 35 36 37 38 38 36 34 32 29 28 28 27 25 23 20 15 16 23 23 20 16 12 13 14 14 17 20 24 29 29 27 25 25 28 26 25 24 22 23 25 25
30 30 31 31 31 28 25 23 20 18 17 17 17 18 19 21 23 25 26 28 29 30 32 34 34 36 38 37 34 35 38 41 41 42 41 41 43 41 38 38 37 37 35 34 33 32 34 36 39 41 39 36 34 34 35 33 30 29 30 29 23 19 16 18 25 23 21 20 15 15 14 12 14 17 21 27 29 28 27 26 27 27 26 23 21 21 24 24
30 30 31 31 30 27 24 21 18 17 15 14 15 15 15 17 18 19 22 22 24 27 30 31 32 34 34 33 35 38 39 41 41 41 41 43 44 42 41 41 39 40 38 34 34 34 36 39 43 42 38 36 37 38 39 37 33 32 33 31 26 23 20 20 24 24 21 20 20 18 16 13 13 16 20 25 31 31 30 28 25 25 24 22 21 21 21 23
29 30 30 29 27 24 21 19 17 15 14 12 13 13 13 14 14 16 18 16 18 24 27 30 32 33 36 38 38 34 33 37 38 38 41 42 43 43 44 44 43 42 40 37 36 37 39 43 45 42 39 39 38 38 40 40 37 32 29 30 33 32 27 22 24 26 21 19 21 21 19 15 13 15 18 25 34 33 31 30 25 24 24 22 22 22 21 24
29 30 29 27 24 21 20 18 17 15 13 11 11 12 12 11 11 13 13 11 16 23 25 29 31 33 38 38 36 33 33 36 37 39 42 42 42 42 41 43 42 41 40 38 36 37 41 44 43 42 41 39 39 39 41 42 40 33 28 33 39 37 29 24 25 27 23 18 19 21 22 18 13 13 16 24 35 33 28 26 25 25 24 22 22 23 22 25
29 28 27 24 22 20 19 19 17 14 12 10 10 10 9 9 9 11 14 15 18 22 22 25 27 29 32 33 34 37 39 38 38 41 42 41 42 43 43 44 43 42 42 38 31 33 41 43 41 41 40 39 39 39 41 43 41 37 37 39 40 39 33 28 27 28 25 21 20 22 23 20 15 13 16 22 29 32 28 25 24 25 25 25 23 24 24 23
27 26 23 21 19 19 20 19 17 14 11 9 8 7 6 7 8 10 14 16 17 20 21 22 26 28 29 32 35 35 37 38 38 40 41 40 42 42 43 44 44 44 43 40 33 34 41 43 40 40 42 43 39 37 41 44 43 39 41 41 37 37 35 31 29 27 25 25 25 24 21 20 18 14 16 21 24 28 30 26 25 23 23 26 26 25 25 23
25 23 20 17 17 18 19 19 16 12 8 5 4 4 4 6 9 10 12 13 14 17 20 22 27 28 27 30 32 33 34 35 34 35 37 39 40 41 42 42 45 46 44 42 40 41 43 42 42 44 47 47 43 43 44 44 45 45 44 39 34 33 32 32 33 32 29 28 27 24 19 20 24 20 16 19 22 25 27 25 23 21 20 22 24 23 23 22
22 19 16 15 16 16 17 18 14 10 6 3 1 3 6 8 9 9 9 11 11 13 19 23 25 26 27 28 29 31 32 31 32 32 33 36 36 39 41 38 39 42 42 41 41 42 41 40 44 48 47 46 46 44 39 39 47 50 43 36 32 31 35 37 36 36 32 27 24 21 18 20 27 26 19 18 22 22 23 23 20 20 20 20 21 22 21 21
20 16 13 14 15 15 15 15 12 8 4 2 1 4 7 9 9 6 6 9 10 15 20 22 21 20 23 24 24 27 27 26 28 28 29 32 32 36 41 39 38 35 32 34 39 42 42 40 43 45 45 45 44 38 34 36 43 43 39 37 34 31 35 38 37 37 34 29 25 20 18 24 28 27 22 20 22 22 21 22 20 19 21 20 21 22 21 22
18 14 12 13 14 13 13 13 11 7 4 1 3 6 6 6 7 6 7 10 12 17 19 20 21 18 17 20 21 21 22 22 26 27 27 29 31 34 38 39 40 36 26 21 29 37 39 40 41 42 44 44 41 39 38 40 40 38 37 37 35 29 30 35 34 34 33 30 26 20 18 25 29 28 25 20 21 24 22 22 21 20 20 20 22 23 20 19
16 12 12 13 14 12 10 11 11 7 3 1 3 5 4 5 7 8 9 10 11 16 16 18 21 18 17 21 20 19 17 20 26 26 22 22 22 24 30 34 36 38 33 22 23 29 30 37 43 42 44 43 41 43 43 41 39 36 36 37 36 30 26 28 28 28 28 26 24 22 23 28 30 30 29 25 22 24 24 24 23 21 21 20 21 22 18 14
14 11 12 13 13 10 9 10 9 7 3 1 3 4 4 6 8 7 8 10 12 16 16 17 20 19 19 20 22 22 17 19 26 22 17 20 22 24 31 36 37 39 38 30 25 23 22 36 45 42 42 42 40 43 42 39 36 33 35 35 32 30 25 23 24 25 26 25 24 28 31 32 32 30 32 32 28 26 27 26 25 23 22 21 19 20 18 13
12 11 12 13 12 9 7 8 8 7 4 2 3 2 4 7 7 7 9 12 13 15 17 17 19 19 17 17 21 24 19 19 24 21 19 24 27 30 32 33 35 35 36 34 27 19 17 33 45 42 41 41 39 40 40 38 36 32 31 29 27 31 32 27 23 23 25 26 28 33 34 32 34 35 35 34 32 31 30 28 26 25 23 22 20 19 18 16
11 10 11 12 12 9 6 6 7 8 4 5 4 1 4 5 8 9 11 12 12 16 17 15 17 16 14 16 18 22 20 17 20 19 21 24 25 28 29 30 33 31 33 35 28 21 18 26 40 45 42 40 39 39 37 38 40 36 34 35 31 31 33 31 26 22 25 27 28 33 33 30 34 39 38 36 35 34 32 31 29 27 25 23 22 20 19 18
10 9 10 12 12 9 7 6 5 6 5 7 3 2 5 7 8 10 12 12 14 19 16 15 19 16 13 16 17 21 20 15 17 19 20 24 25 26 27 29 31 30 33 37 33 27 22 18 28 42 44 40 40 40 35 34 40 40 37 38 37 31 28 30 28 22 21 25 26 31 34 32 35 40 40 38 36 35 34 33 31 30 28 26 24 23 22 20
9 8 10 12 13 11 8 5 4 4 5 4 1 3 6 7 9 11 12 13 16 20 15 14 18 17 15 18 16 20 21 15 17 20 19 22 24 24 25 26 27 29 31 35 34 30 27 21 23 37 44 37 35 38 35 31 35 40 36 33 38 34 24 26 30 24 19 21 25 31 35 35 35 39 41 38 35 35 35 35 33 31 30 28 26 26 24 23
9 8 8 10 12 12 9 6 5 4 3 1 2 3 6 9 9 10 11 13 15 17 14 13 17 16 15 16 15 18 21 17 16 19 19 21 23 23 24 24 25 27 26 30 32 30 32 28 19 27 35 31 34 39 38 37 39 43 39 30 31 30 23 24 28 25 22 21 23 30 36 37 36 37 39 37 35 35 35 36 35 31 29 29 28 27 26 25
8 6 6 8 10 11 10 8 5 3 1 2 2 3 7 10 10 10 11 13 13 13 13 14 17 18 16 15 15 16 18 18 17 19 19 21 22 21 23 23 24 26 26 28 31 31 34 28 14 16 24 28 37 40 37 40 41 40 42 34 27 24 23 22 21 24 28 26 24 32 37 39 39 38 36 35 36 36 35 36 36 32 30 30 29 30 28 27
9 6 4 5 6 8 10 10 6 3 2 0 1 3 5 9 11 12 12 12 12 11 12 13 14 16 16 14 15 15 16 17 17 18 19 20 21 21 22 24 24 26 26 27 29 30 31 29 20 21 27 32 38 37 34 39 38 34 37 39 34 28 25 25 24 28 32 27 23 32 36 37 38 38 36 35 36 38 38 38 37 35 34 32 32 33 31 29
9 5 3 3 4 6 8 9 7 4 3 2 2 3 4 7 9 12 13 13 13 11 12 13 12 13 14 13 13 14 15 15 14 17 17 18 20 21 22 23 24 26 27 27 28 28 29 31 29 26 28 30 32 34 34 37 36 34 37 41 41 36 33 35 34 33 34 29 25 29 35 36 34 33 34 35 36 39 40 39 38 38 37 35 34 34 33 31
8 6 4 3 3 5 6 7 6 5 5 4 3 4 5 6 7 10 13 14 15 14 12 13 13 13 13 13 13 13 14 14 14 15 17 17 19 20 21 22 23 25 27 26 27 28 29 33 33 27 23 23 26 30 33 34 34 37 39 39 39 39 38 38 36 35 34 33 31 33 38 40 35 31 32 33 35 38 40 41 40 39 40 38 37 35 33 32
8 6 5 3 2 3 4 4 5 5 6 6 5 4 5 7 7 8 10 13 15 15 15 14 15 15 15 14 14 13 13 14 14 15 18 18 18 19 20 21 22 24 26 27 27 29 30 31 32 30 28 27 29 32 33 34 34 38 41 39 37 40 39 38 39 39 37 35 36 38 42 44 41 37 35 33 33 35 38 40 41 41 41 41 39 37 35 34
7 6 5 4 3 2 2 1 3 4 5 6 6 6 5 6 8 9 10 11 13 14 15 16 16 17 17 17 16 16 16 15 15 16 17 18 19 20 20 21 22 23 24 26 27 28 29 30 31 32 33 33 35 35 35 35 37 40 42 40 39 40 39 38 41 42 40 39 39 38 40 42 43 42 40 36 34 35 37 39 40 42 43 42 42 40 39 38
6 6 6 5 4 2 2 1 2 3 4 5 7 7 7 7 6 6 8 11 12 14 15 16 17 17 18 18 18 18 18 17 17 17 17 18 19 20 21 21 22 23 24 25 26 27 28 31 32 32 33 34 35 36 36 37 38 39 39 39 39 39 39 40 42 41 40 40 40 39 39 41 43 43 42 40 37 36 38 39 40 42 44 44 44 43 42 42
5 6 5 5 5 4 3 2 2 3 4 4 5 6 7 7 7 7 6 7 8 10 12 14 15 16 16 17 18 18 19 19 19 18 18 19 20 20 22 22 22 23 23 24 25 26 27 30 30 30 31 33 34 35 35 36 36 37 39 39 39 39 40 41 42 42 41 40 40 40 40 41 42 40 40 41 40 39 39 40 41 42 43 45 46 45 45 45
3 4 5 5 4 4 4 3 2 3 4 5 4 5 5 5 5 6 6 6 6 6 8 10 13 14 16 17 17 17 18 18 18 18 18 19 20 20 21 21 21 22 22 23 24 24 27 29 28 28 30 31 32 33 34 35 34 35 38 39 39 39 41 41 41 42 41 39 39 40 41 42 41 39 39 40 41 43 42 42 42 42 43 44 45 46 47 47
3 4 5 4 4 4 4 3 2 3 5 6 6 6 5 4 5 5 5 5 6 6 6 7 9 10 12 13 14 15 17 17 17 17 17 17 18 18 18 19 20 20 20 21 21 23 25 27 26 27 29 31 33 32 33 35 34 35 37 37 37 38 39 40 41 43 43 42 40 40 42 43 42 40 40 42 44 45 44 44 43 43 43 44 45 46 48 49
3 2 3 4 3 3 3 3 2 2 4 6 7 7 7 7 6 6 6 6 6 6 6 6 7 8 9 9 10 10 11 12 13 13 14 14 14 15 16 17 18 18 18 19 19 22 23 23 24 24 25 29 33 32 32 34 33 35 38 38 37 38 39 40 43 43 43 43 42 41 42 42 42 41 41 44 46 46 45 46 45 44 44 44 45 46 47 49
Wind_Direction
270 270 268 267 267 268 269 269 268 267 265 263 260 257 254 251 247 244 239 235 233 233 232 232 232 234 234 235 238 240 239 236 230 225 223 219 216 214 214 212 210 210 211 211 212 216 220 222 225 226 226 223 217 213 209 208 212 210 220 240 218 177 142 177 153 146 154 144 146 155 154 159 153 149 154 149 151 156 153 151 149 149 149 151 155 155 155 153
266 265 265 265 264 263 264 265 266 266 265 265 263 260 256 253 250 247 244 240 235 232 231 230 230 231 232 232 233 237 239 238 232 224 222 221 218 215 214 213 212 211 213 214 213 214 217 220 223 224 225 223 219 215 212 211 210 209 220 232 219 185 174 189 167 157 156 150 155 158 156 161 158 156 157 153 153 153 152 154 151 150 149 149 151 154 160 159
264 262 261 261 261 261 261 261 262 263 264 263 263 261 258 255 252 249 247 243 239 235 231 230 228 228 229 230 230 231 234 237 234 226 222 223 220 217 214 214 214 213 214 215 215 216 217 220 224 226 226 224 220 215 214 213 210 211 218 223 200 178 185 192 179 170 161 158 164 163 162 165 165 168 161 152 151 148 149 151 152 153 149 147 148 150 159 158
265 263 261 259 257 257 258 258 259 260 261 262 262 261 259 257 254 251 248 246 243 239 235 231 229 227 226 228 229 229 230 232 233 228 223 224 223 218 214 213 214 214 215 215 214 214 214 218 222 225 226 225 221 215 214 213 212 212 213 219 204 190 192 189 182 178 173 170 171 173 172 167 165 166 159 152 150 146 147 150 155 157 151 148 145 146 154 155
268 265 263 261 258 256 255 254 255 256 257 258 259 260 259 257 254 252 249 247 244 242 238 235 231 228 226 226 227 227 228 229 229 228 225 225 224 220 215 213 214 213 214 214 213 210 207 211 215 219 220 219 222 218 214 212 212 213 214 217 210 201 197 193 183 180 185 184 179 180 174 166 164 164 160 158 153 146 145 152 159 158 153 150 145 149 156 155
273 269 267 264 262 260 257 254 252 252 253 254 255 257 258 257 255 252 249 247 245 242 240 237 234 231 228 225 225 226 228 227 226 227 226 226 225 222 216 214 215 213 213 212 212 210 205 206 210 213 209 205 217 220 213 212 210 212 217 211 202 199 195 193 184 182 193 193 182 181 176 170 171 167 161 157 153 150 147 149 158 157 154 151 148 153 160 158
276 274 271 268 266 263 261 258 254 251 250 250 251 252 254 255 254 252 249 247 244 242 240 238 236 233 231 227 225 225 226 225 225 224 224 224 223 222 218 215 215 214 212 211 211 211 207 206 205 207 204 198 212 218 211 209 204 205 212 205 198 199 194 193 190 185 191 192 183 183 181 176 176 168 162 160 154 154 151 150 158 157 153 153 152 156 161 161
279 277 274 271 269 266 264 261 258 254 250 248 247 247 249 250 251 251 249 247 244 242 240 238 236 234 233 230 228 226 225 223 224 222 221 223 221 220 219 216 216 215 213 210 211 210 208 209 206 205 201 195 207 214 208 206 202 202 207 202 199 199 192 193 195 186 187 192 193 196 189 184 187 170 161 170 165 160 157 154 159 158 154 153 154 159 163 162
282 279 277 274 271 269 266 263 260 257 253 249 246 245 245 246 247 248 247 246 244 241 239 238 236 235 234 232 231 229 225 222 223 221 220 221 219 217 217 217 217 216 213 211 212 212 210 211 210 209 203 196 202 206 205 204 201 203 207 204 202 199 194 195 198 191 192 198 204 206 196 188 188 170 162 177 177 167 162 159 160 159 157 156 157 163 166 164
283 280 278 276 273 271 268 264 261 258 255 251 248 245 243 242 243 244 244 244 243 241 238 236 235 234 234 232 232 231 226 223 222 220 219 219 218 215 214 217 218 217 215 211 211 212 211 213 215 214 208 201 202 201 202 202 199 202 205 207 206 202 199 199 202 199 197 204 206 201 195 192 188 177 174 182 185 173 166 164 163 163 162 157 160 165 166 168
285 283 280 277 274 272 269 266 263 259 256 252 249 247 244 242 241 241 242 242 242 240 238 236 234 233 233 232 233 231 228 227 224 221 219 217 217 215 213 216 218 217 216 212 211 211 211 214 218 218 212 204 201 201 201 198 200 202 201 204 205 203 203 203 205 202 194 199 202 201 203 201 191 185 181 180 184 177 171 170 166 167 165 158 162 167 167 170
289 286 283 280 276 272 269 266 263 260 257 254 250 247 246 243 241 240 240 240 240 240 238 235 233 232 231 232 233 230 228 228 225 224 221 217 216 214 213 215 216 217 216 214 213 212 213 215 216 219 215 205 200 199 199 198 200 201 198 200 202 204 206 206 208 204 194 191 196 207 212 205 193 190 184 181 186 177 175 176 169 169 167 162 164 166 167 172
295 291 288 284 281 277 272 267 264 260 257 254 250 247 245 244 242 241 239 238 238 239 238 235 233 231 229 230 231 228 228 226 224 224 223 220 217 214 213 213 215 217 218 217 214 213 214 214 217 217 210 204 204 196 193 200 202 200 197 197 200 205 206 208 211 205 200 203 203 205 208 204 200 198 188 185 186 177 177 179 172 172 169 166 167 168 169 173
303 300 296 292 288 283 277 272 267 262 258 254 250 247 244 242 242 241 240 238 237 237 237 236 233 231 229 229 228 227 228 226 223 223 223 223 220 216 214 212 213 215 217 218 216 214 213 215 219 218 207 201 198 185 188 197 202 201 198 197 201 204 204 207 212 210 207 214 213 207 208 205 200 197 191 185 182 174 178 181 175 176 174 169 169 171 171 172
313 309 304 301 296 289 283 277 271 266 261 256 251 247 244 242 240 239 239 238 237 237 236 236 234 231 229 228 225 225 226 224 222 222 222 223 221 218 215 214 213 212 213 214 214 212 211 216 219 218 212 201 180 177 190 195 199 202 199 198 202 205 204 207 212 211 209 213 215 212 212 208 199 194 188 183 180 173 178 185 180 179 178 173 171 173 171 171
322 318 311 306 301 296 289 283 277 271 265 259 254 249 245 243 240 238 237 237 238 237 236 236 234 231 229 227 224 223 224 223 222 221 221 221 222 220 217 215 214 212 211 211 211 210 209 212 216 216 213 203 190 188 192 192 196 201 199 197 203 205 204 210 213 208 207 212 215 213 211 208 203 198 189 186 183 174 180 189 185 183 182 177 174 174 172 171
326 323 317 311 306 301 295 290 284 276 270 263 256 251 247 244 241 238 237 236 236 237 236 235 233 232 230 228 225 223 223 222 221 220 219 220 220 220 218 216 214 212 212 210 209 209 208 209 211 213 213 207 202 197 193 191 193 198 201 201 203 204 204 210 213 208 209 214 214 215 215 208 205 201 193 192 189 177 181 190 188 188 186 180 178 177 175 174
328 325 321 315 310 305 301 297 291 282 275 268 260 253 248 244 242 239 237 236 235 235 235 234 232 230 228 225 223 222 221 220 219 218 217 218 218 218 217 215 213 213 213 211 209 208 207 209 208 208 209 208 207 202 195 191 193 197 201 205 206 207 207 207 213 210 208 217 216 213 214 204 200 201 197 194 190 181 181 187 191 192 188 183 180 181 181 178
330 327 324 320 316 312 307 302 296 287 278 271 263 255 249 244 242 240 238 237 236 235 233 232 230 228 227 224 222 221 218 218 218 216 215 215 215 216 215 214 212 212 213 212 210 208 207 208 208 207 205 206 206 203 198 193 194 196 199 204 207 210 207 207 220 215 208 221 218 210 218 216 206 205 203 195 190 187 183 188 194 193 189 187 185 184 185 184
331 328 326 323 320 316 311 305 297 290 282 274 265 256 250 245 242 240 240 238 237 235 233 232 230 230 229 226 224 220 217 216 216 214 213 213 213 213 212 212 210 210 213 213 211 209 208 207 209 208 205 204 204 201 202 199 196 195 197 202 209 214 209 207 215 210 205 211 207 205 216 220 213 207 203 195 191 189 185 188 192 193 193 190 189 187 187 186
331 329 326 325 322 318 313 306 299 292 285 277 268 259 251 246 242 241 240 239 238 236 233 230 228 228 228 225 223 219 217 216 214 212 212 211 211 210 210 210 209 209 210 213 211 209 209 207 207 207 205 204 202 200 204 203 199 197 194 197 206 218 216 210 205 203 203 194 193 204 206 211 215 208 200 193 191 189 186 189 191 194 196 192 190 190 188 187
332 330 329 327 325 322 317 310 303 294 285 277 269 259 252 246 243 240 238 239 238 236 234 231 228 227 227 225 221 218 217 216 214 211 210 210 209 208 208 208 207 207 209 211 211 210 209 207 205 205 205 205 203 202 202 199 198 198 196 197 200 210 221 217 213 213 209 199 201 205 200 208 213 208 203 198 196 193 188 190 193 197 199 194 191 191 189 187
334 333 332 330 328 326 320 314 307 298 288 276 265 257 250 245 242 239 238 238 237 235 232 229 227 226 224 221 218 216 215 214 213 210 208 208 208 208 208 207 206 206 208 209 209 211 211 208 206 206 206 207 205 203 199 196 198 200 201 202 201 206 213 214 217 216 209 205 207 200 198 210 211 208 206 201 200 198 192 191 192 197 201 196 193 192 190 188
335 334 333 332 330 327 322 316 309 300 290 276 265 256 249 244 241 240 238 239 238 235 231 228 225 222 220 218 216 214 213 213 210 207 206 206 208 208 206 206 206 206 207 206 206 210 211 209 209 208 208 208 207 203 197 196 200 202 204 204 203 205 204 209 213 210 206 203 201 201 198 202 208 208 204 199 198 197 197 197 192 191 196 197 196 194 191 189
335 335 334 333 333 329 324 319 312 303 290 276 266 257 251 245 241 240 239 239 239 235 230 226 222 220 219 217 214 213 213 212 209 205 203 204 206 206 205 205 206 206 206 204 203 206 209 210 211 211 209 207 206 204 199 197 199 204 205 202 201 200 202 216 211 200 203 207 207 211 204 202 210 209 204 201 199 196 198 203 198 192 192 193 196 196 194 193
336 336 336 336 334 331 327 323 316 307 291 276 267 259 252 246 241 239 235 235 237 232 227 222 218 217 216 212 211 213 215 214 209 205 203 204 205 202 202 204 205 206 204 201 203 205 207 211 211 209 207 206 205 203 201 197 199 204 205 201 202 201 202 213 206 196 204 209 211 214 209 214 220 213 209 204 201 200 200 202 201 197 192 191 194 194 195 197
339 339 338 338 336 333 331 327 320 309 293 278 267 259 254 246 237 234 230 226 230 227 221 217 212 209 207 206 206 208 215 216 210 206 205 206 205 202 202 202 203 205 202 198 201 205 208 212 212 207 205 206 205 204 203 199 198 202 204 203 208 210 209 206 197 196 204 210 213 214 209 212 220 218 215 207 203 203 202 201 199 199 194 191 193 191 193 198
341 341 340 339 339 338 337 333 325 314 298 283 268 259 255 245 233 228 214 198 216 225 220 215 210 208 207 205 200 198 205 208 206 206 206 205 205 204 206 205 204 205 203 198 201 207 210 213 212 208 206 206 203 203 204 201 198 200 203 203 207 212 213 204 195 196 204 212 213 212 209 210 219 224 217 207 202 200 201 201 200 200 197 194 195 192 195 199
343 343 342 342 343 344 344 340 332 320 303 285 268 259 253 241 230 216 200 194 211 223 221 214 211 210 208 203 200 201 204 203 201 201 202 203 204 203 204 205 204 206 203 196 198 209 213 214 212 209 208 207 204 204 205 202 198 202 208 205 204 209 207 198 197 199 205 214 211 206 208 211 224 230 217 207 201 198 200 202 202 202 200 200 196 191 195 198
345 344 344 345 348 349 349 346 338 326 308 288 270 258 245 226 206 198 206 211 216 220 216 208 204 204 205 202 202 205 208 208 205 202 199 202 204 204 205 204 203 205 201 194 196 207 212 213 211 208 208 206 202 203 206 201 198 206 213 209 207 211 206 200 203 202 206 215 211 206 207 211 222 227 214 209 204 202 202 201 201 199 196 197 193 190 193 192
347 346 347 350 352 352 352 349 342 334 317 294 268 238 198 185 184 189 203 212 221 219 208 201 199 198 198 201 202 203 206 208 207 204 203 203 203 204 206 205 205 206 200 194 201 208 209 210 209 208 208 205 201 204 205 198 198 208 212 207 207 211 209 208 210 208 209 211 208 208 211 215 223 229 226 215 207 203 201 200 202 199 194 192 191 193 195 191
349 349 352 354 353 352 353 350 345 341 333 308 244 179 160 160 176 191 197 205 218 209 197 200 202 196 194 197 202 204 204 205 204 202 204 205 205 205 205 205 208 209 203 199 203 208 210 210 211 211 209 207 207 207 204 198 203 211 211 206 203 206 211 211 210 211 212 209 205 204 210 219 224 228 234 225 211 205 203 204 206 205 204 200 194 195 196 196
353 353 356 353 349 349 350 349 346 344 347 337 164 154 153 161 176 192 198 206 203 186 189 197 194 191 193 195 199 201 201 201 200 201 201 200 202 205 204 203 203 203 201 202 205 209 213 213 211 213 212 210 210 206 202 202 208 212 212 209 203 204 212 212 211 214 214 213 212 203 210 224 225 225 227 224 216 211 209 208 207 206 208 209 200 196 198 201
356 358 357 350 347 347 347 348 344 340 354 350 165 147 142 167 188 194 195 203 197 188 189 183 175 174 181 190 194 193 194 196 195 198 199 199 203 205 205 206 204 198 188 195 208 211 215 216 213 213 212 210 208 205 202 202 205 207 208 209 206 206 213 212 214 217 214 217 217 205 210 225 227 225 221 217 215 213 212 209 207 207 209 212 208 204 207 208
360 1 355 349 348 348 350 350 341 338 5 32 149 135 134 185 199 198 199 195 189 191 189 179 175 169 171 188 190 181 189 201 197 195 195 196 202 204 204 206 206 199 188 188 209 211 215 220 214 211 212 209 206 208 207 202 200 201 203 204 202 204 211 214 217 218 214 216 218 214 218 223 226 227 222 218 217 215 214 212 208 208 212 216 218 219 220 214
3 3 357 355 354 355 1 354 339 337 357 89 128 132 169 209 204 200 199 176 166 177 177 175 178 174 179 193 192 186 192 200 194 190 187 187 192 199 202 202 201 200 194 188 194 201 215 222 214 208 212 209 206 210 209 203 199 199 202 201 199 201 203 206 215 219 214 213 221 228 230 228 228 230 227 223 221 216 216 215 211 211 216 220 226 234 237 230
6 6 2 2 2 5 10 358 341 335 341 78 92 147 198 210 190 176 177 161 158 168 166 172 178 179 191 197 196 199 197 193 193 194 198 197 199 204 203 200 200 203 200 191 180 178 205 220 213 208 211 207 206 210 207 203 200 196 198 201 200 203 200 190 196 210 210 208 222 234 236 234 234 234 231 226 220 218 218 217 215 214 218 223 229 238 243 241
8 11 8 9 10 13 18 10 348 334 357 69 65 192 191 180 165 161 164 157 160 163 160 179 185 177 191 194 195 200 190 185 194 196 203 206 206 207 202 199 199 198 198 195 186 179 195 216 213 209 210 206 205 209 207 204 203 200 199 201 202 206 204 192 183 191 202 203 216 235 239 237 235 233 233 229 222 219 219 218 219 219 221 225 229 235 238 240
10 14 13 17 19 19 25 26 359 341 26 66 64 183 163 153 151 153 160 158 164 164 164 191 190 168 177 193 195 192 180 184 197 194 202 207 206 207 203 202 201 196 196 198 196 193 190 206 216 211 209 208 207 208 206 204 208 210 207 203 202 202 203 201 192 186 197 199 207 230 238 234 229 228 230 230 225 222 221 219 219 220 222 225 230 234 237 238
11 19 20 23 26 27 33 35 19 16 36 47 69 164 146 146 147 150 163 168 172 175 175 188 184 167 172 189 193 188 182 186 196 195 201 204 203 205 203 202 201 199 201 204 207 207 198 196 214 213 209 209 211 209 205 202 206 210 210 209 209 202 193 203 203 194 196 201 207 227 239 236 227 226 230 230 227 225 224 223 222 220 221 224 229 232 235 236
13 24 27 26 28 33 42 48 44 46 30 302 228 176 145 142 146 152 165 175 180 189 186 173 177 179 178 183 187 187 190 194 197 199 203 203 203 204 203 203 202 198 201 205 207 210 204 197 210 219 211 208 212 210 207 207 206 204 203 207 213 210 203 205 205 198 195 198 209 226 240 240 230 228 231 231 227 225 223 224 226 225 222 223 226 228 230 232
16 28 31 27 29 35 47 54 54 63 33 275 224 187 154 145 152 159 167 177 181 191 194 180 179 182 177 181 184 185 193 198 201 205 207 205 205 205 205 205 205 201 201 204 204 204 203 195 196 220 213 208 213 212 211 214 213 206 203 203 204 206 207 205 208 209 200 195 209 221 230 237 234 231 232 231 228 226 224 223 224 227 226 224 224 224 225 229
19 29 29 22 25 33 47 53 50 66 76 28 179 185 172 157 158 163 169 180 181 181 190 189 185 183 179 182 184 185 193 197 201 206 207 207 206 206 207 207 208 208 205 205 204 202 202 198 198 214 212 210 213 213 214 218 218 214 212 212 209 203 198 196 204 211 201 194 213 225 227 232 234 233 232 231 230 226 225 224 222 224 228 227 227 226 226 230
22 25 20 7 15 28 46 55 49 60 81 96 159 167 181 174 170 171 171 178 185 187 188 186 189 192 187 186 186 187 193 197 202 205 205 208 207 206 208 207 209 212 210 210 207 202 203 203 206 214 215 213 214 213 216 219 219 217 216 217 217 215 211 205 205 208 202 197 210 226 233 232 230 232 231 229 230 228 225 223 221 223 227 228 231 232 232 233
25 25 20 4 2 23 46 61 57 61 76 92 141 160 180 184 182 182 179 181 187 192 193 190 195 200 196 196 196 192 195 202 205 205 205 208 208 207 208 207 208 211 211 212 211 208 208 208 208 212 213 213 216 215 216 218 219 221 220 218 219 222 221 216 213 213 210 209 210 216 227 230 226 227 229 227 228 228 227 224 221 222 226 227 230 233 234 235
26 27 24 6 345 11 38 65 71 69 73 82 108 137 168 183 188 190 188 190 192 194 196 197 200 204 203 204 205 200 203 208 209 209 210 211 212 212 211 208 208 209 209 211 213 213 214 213 212 214 215 213 214 215 216 218 220 223 223 221 221 223 222 219 218 217 213 215 219 219 224 229 228 226 229 228 228 228 228 226 223 223 225 225 227 229 230 232
26 26 27 19 2 10 26 66 86 83 83 85 94 106 123 159 181 192 194 195 197 198 201 204 206 208 209 209 208 207 208 213 216 216 215 216 219 219 218 216 213 212 210 211 214 214 216 217 216 218 220 219 218 218 217 219 222 223 222 223 223 224 224 222 222 222 217 216 223 225 225 230 232 229 230 231 231 230 229 227 225 224 224 224 225 226 227 230
26 24 23 25 23 35 59 97 127 114 109 101 95 98 101 110 137 167 186 195 199 202 204 206 207 210 212 213 214 214 214 217 222 223 220 221 223 223 224 222 220 220 217 215 216 216 218 221 220 220 222 223 223 221 220 220 222 224 224 225 225 224 225 224 224 226 222 219 225 228 227 231 233 229 229 232 233 232 230 228 226 224 224 225 225 225 225 228
25 23 22 26 28 41 66 91 145 158 150 134 116 113 110 105 108 115 135 164 187 201 206 206 207 207 208 212 215 215 217 220 222 223 224 224 225 226 227 225 223 224 223 222 221 220 222 225 224 224 227 228 227 226 225 224 224 225 225 225 226 226 226 227 227 228 226 223 227 230 231 234 234 228 227 230 232 232 230 228 226 224 224 225 225 225 225 226
17 27 24 24 25 37 60 82 131 185 190 179 164 151 139 126 123 119 119 129 143 166 187 198 204 205 205 208 212 212 215 219 221 222 225 225 224 226 227 227 227 226 225 225 225 225 227 227 226 228 231 232 232 232 231 229 227 228 227 225 226 228 228 228 228 229 228 226 227 229 231 235 235 230 228 230 231 230 229 229 227 225 224 224 224 225 225 226
4 33 31 23 22 33 53 76 109 177 201 206 201 192 184 172 162 157 150 147 147 148 156 168 181 191 198 203 208 211 214 219 221 222 225 227 226 226 227 228 229 229 228 227 227 227 229 228 226 228 234 235 232 233 235 233 232 232 230 227 228 229 229 230 228 228 228 227 227 230 232 234 234 232 231 231 229 228 228 229 228 226 226 225 225 225 226 227
348 33 41 28 24 33 52 76 96 148 189 210 215 210 209 205 197 194 191 185 182 175 168 165 165 170 176 179 184 192 200 206 209 213 217 220 221 222 224 227 227 228 229 227 227 228 228 228 227 226 233 237 232 230 235 235 235 237 233 228 228 229 230 230 230 229 229 229 229 231 232 234 234 235 235 234 230 228 228 230 230 229 229 228 227 226 225 226
Height
5851 5851 5851 5851 5850 5850 5850 5850 5850 5850 5849 5849 5850 5850 5851 5851 5851 5852 5852 5853 5854 5855 5856 5856 5857 5858 5859 5860 5862 5863 5864 5865 5867 5868 5869 5870 5871 5872 5873 5874 5876 5876 5877 5878 5879 5880 5881 5883 5884 5886 5887 5889 5891 5892 5893 5893 5893 5893 5894 5895 5894 5894 5894 5894 5894 5894 5895 5895 5896 5899 5899 5899 5900 5901 5902 5902 5901 5902 5902 5902 5902 5903 5903 5903 5904 5905 5906 5906
5848 5848 5848 5848 5847 5847 5847 5847 5847 5847 5847 5847 5847 5847 5848 5848 5849 5849 5850 5851 5852 5852 5853 5854 5855 5856 5857 5858 5859 5861 5862 5863 5865 5866 5867 5868 5869 5870 5872 5873 5874 5875 5876 5877 5878 5879 5880 5882 5883 5884 5886 5888 5890 5892 5892 5892 5893 5894 5894 5894 5894 5895 5894 5894 5895 5895 5896 5897 5897 5899 5901 5900 5900 5901 5902 5902 5902 5903 5902 5902 5903 5903 5903 5903 5904 5905 5906 5907
5845 5844 5844 5844 5844 5844 5844 5844 5844 5844 5844 5844 5844 5844 5845 5846 5846 5847 5847 5848 5849 5850 5851 5852 5853 5854 5855 5856 5857 5858 5860 5861 5863 5865 5866 5866 5867 5868 5870 5872 5873 5874 5875 5876 5877 5879 5880 5881 5882 5883 5885 5887 5889 5891 5891 5892 5893 5894 5894 5894 5894 5894 5895 5895 5896 5896 5897 5897 5897 5899 5901 5901 5901 5902 5902 5903 5903 5903 5903 5903 5904 5904 5904 5904 5904 5906 5907 5908
5842 5842 5841 5841 5841 5841 5841 5841 5841 5841 5842 5842 5842 5841 5842 5843 5843 5844 5844 5845 5846 5847 5848 5849 5850 5851 5852 5853 5855 5856 5857 5858 5860 5863 5864 5864 5865 5867 5869 5870 5871 5872 5874 5875 5877 5878 5879 5880 5881 5882 5884 5886 5887 5889 5890 5891 5892 5893 5894 5893 5894 5894 5894 5895 5896 5897 5897 5897 5897 5898 5900 5900 5901 5902 5902 5902 5903 5903 5904 5904 5905 5905 5904 5904 5905 5906 5907 5909
5839 5839 5838 5838 5837 5837 5837 5837 5837 5838 5838 5838 5839 5839 5839 5839 5840 5841 5841 5842 5843 5845 5846 5847 5848 5849 5850 5851 5852 5853 5854 5856 5858 5860 5862 5863 5864 5866 5867 5868 5870 5871 5872 5874 5875 5877 5878 5879 5880 5881 5883 5885 5886 5888 5890 5891 5892 5893 5893 5893 5893 5895 5895 5895 5896 5897 5897 5897 5898 5898 5900 5900 5901 5901 5901 5902 5903 5904 5905 5905 5906 5905 5905 5905 5905 5906 5908 5909
5836 5836 5836 5835 5835 5834 5834 5834 5834 5834 5835 5835 5835 5836 5836 5836 5837 5837 5838 5839 5840 5842 5843 5844 5845 5846 5847 5848 5850 5851 5852 5854 5856 5858 5859 5861 5863 5864 5866 5867 5868 5869 5871 5872 5874 5875 5877 5878 5879 5880 5882 5884 5885 5887 5889 5890 5891 5893 5893 5893 5893 5895 5895 5895 5896 5897 5897 5897 5899 5900 5901 5901 5901 5901 5901 5902 5904 5904 5905 5905 5906 5906 5906 5906 5906 5907 5908 5910
5833 5832 5832 5832 5832 5831 5831 5831 5831 5830 5831 5831 5832 5832 5833 5833 5834 5834 5835 5836 5837 5838 5840 5841 5842 5844 5845 5846 5847 5848 5850 5852 5853 5855 5857 5859 5861 5863 5864 5865 5866 5868 5869 5870 5872 5874 5875 5876 5877 5879 5881 5883 5884 5886 5887 5888 5890 5892 5893 5893 5893 5895 5895 5895 5896 5897 5897 5898 5900 5900 5901 5901 5901 5901 5901 5903 5904 5904 5905 5906 5906 5906 5907 5907 5907 5908 5909 5910
5830 5829 5829 5828 5828 5828 5828 5828 5828 5827 5827 5827 5828 5829 5829 5830 5830 5831 5832 5832 5834 5835 5836 5838 5839 5841 5842 5843 5845 5845 5847 5849 5851 5853 5855 5856 5859 5860 5862 5864 5865 5866 5867 5869 5870 5872 5874 5875 5876 5878 5879 5881 5882 5884 5886 5887 5889 5891 5892 5892 5892 5894 5895 5895 5895 5896 5897 5898 5899 5899 5900 5901 5901 5902 5902 5903 5904 5904 5906 5906 5906 5907 5907 5908 5909 5909 5910 5911
5827 5826 5825 5825 5824 5824 5824 5824 5824 5824 5824 5824 5824 5825 5826 5826 5827 5828 5828 5829 5830 5831 5833 5835 5836 5838 5839 5841 5842 5842 5845 5847 5848 5850 5852 5854 5856 5858 5860 5862 5863 5864 5866 5867 5869 5870 5872 5874 5875 5876 5878 5880 5881 5883 5885 5886 5888 5889 5891 5891 5892 5893 5894 5895 5895 5896 5896 5897 5897 5897 5899 5901 5901 5902 5903 5904 5904 5904 5906 5906 5907 5907 5908 5908 5909 5910 5911 5911
5823 5823 5822 5821 5821 5820 5820 5820 5820 5820 5820 5821 5821 5821 5822 5822 5823 5824 5825 5826 5827 5828 5830 5831 5833 5834 5836 5837 5838 5840 5842 5844 5846 5848 5849 5852 5853 5855 5858 5859 5861 5862 5864 5866 5867 5869 5871 5872 5873 5875 5877 5879 5880 5882 5883 5885 5887 5888 5890 5891 5891 5892 5893 5894 5894 5895 5895 5895 5896 5897 5899 5902 5902 5902 5903 5904 5905 5905 5905 5907 5907 5908 5908 5909 5910 5911 5911 5912
5820 5819 5819 5818 5817 5817 5816 5816 5816 5816 5816 5817 5818 5818 5818 5818 5819 5820 5821 5822 5823 5824 5826 5828 5829 5830 5832 5834 5835 5837 5840 5842 5844 5845 5847 5849 5851 5853 5855 5857 5859 5861 5862 5864 5865 5867 5869 5870 5872 5875 5877 5878 5880 5881 5882 5885 5886 5887 5889 5891 5891 5892 5893 5893 5893 5894 5894 5895 5896 5898 5900 5902 5903 5903 5903 5904 5905 5905 5906 5907 5907 5908 5909 5910 5911 5911 5912 5913
5817 5816 5816 5815 5814 5813 5813 5812 5812 5812 5812 5813 5814 5814 5814 5815 5816 5816 5817 5818 5819 5821 5822 5824 5825 5827 5829 5830 5831 5835 5837 5839 5842 5843 5844 5846 5848 5850 5852 5854 5856 5858 5860 5862 5864 5866 5867 5870 5872 5873 5875 5877 5879 5880 5882 5884 5885 5886 5888 5890 5891 5891 5892 5893 5893 5894 5894 5895 5897 5897 5899 5901 5902 5903 5903 5904 5906 5905 5905 5906 5907 5908 5909 5910 5911 5911 5912 5913
5815 5814 5813 5812 5811 5810 5809 5809 5808 5808 5808 5809 5810 5810 5811 5811 5812 5812 5813 5814 5816 5817 5819 5820 5822 5823 5825 5826 5829 5832 5834 5836 5839 5840 5842 5844 5845 5848 5849 5852 5854 5856 5859 5860 5863 5864 5866 5869 5870 5872 5875 5877 5878 5879 5881 5883 5884 5885 5887 5889 5890 5891 5892 5893 5893 5894 5894 5895 5896 5896 5897 5899 5900 5901 5902 5904 5906 5906 5906 5907 5907 5908 5909 5910 5911 5911 5912 5913
5812 5811 5810 5809 5808 5807 5806 5805 5805 5804 5804 5805 5805 5806 5807 5807 5808 5809 5809 5810 5812 5813 5815 5816 5818 5819 5821 5823 5827 5829 5830 5833 5835 5837 5839 5841 5843 5845 5847 5849 5852 5854 5857 5859 5862 5863 5866 5867 5868 5871 5874 5876 5878 5879 5880 5881 5883 5884 5886 5888 5889 5890 5891 5892 5893 5893 5894 5895 5896 5896 5896 5897 5899 5900 5901 5903 5905 5906 5906 5906 5907 5908 5909 5909 5911 5912 5913 5914
5810 5808 5807 5806 5805 5804 5803 5802 5801 5800 5800 5800 5801 5801 5802 5803 5804 5805 5806 5807 5808 5809 5811 5812 5814 5816 5817 5820 5823 5824 5827 5830 5832 5834 5837 5839 5841 5843 5845 5847 5849 5852 5855 5857 5860 5862 5864 5866 5867 5870 5873 5876 5877 5878 5879 5880 5882 5883 5885 5887 5888 5889 5890 5892 5892 5892 5894 5895 5895 5895 5895 5896 5898 5900 5901 5903 5905 5906 5906 5906 5907 5908 5909 5909 5910 5912 5913 5914
5807 5806 5804 5802 5801 5800 5799 5798 5798 5797 5796 5796 5796 5797 5797 5798 5799 5800 5801 5802 5804 5805 5807 5808 5810 5812 5813 5816 5819 5821 5823 5826 5828 5831 5834 5836 5839 5841 5843 5845 5847 5850 5852 5855 5858 5860 5862 5864 5866 5869 5871 5874 5876 5877 5878 5879 5881 5882 5884 5886 5887 5888 5890 5890 5890 5892 5893 5894 5894 5894 5894 5895 5897 5899 5901 5903 5904 5905 5905 5906 5907 5908 5908 5909 5910 5912 5913 5914
5804 5802 5801 5799 5798 5797 5795 5794 5794 5793 5792 5792 5792 5792 5793 5793 5794 5795 5796 5798 5799 5801 5802 5804 5806 5808 5810 5813 5816 5818 5820 5823 5826 5828 5831 5833 5836 5838 5841 5843 5845 5848 5850 5853 5855 5857 5860 5861 5864 5867 5870 5872 5874 5875 5877 5878 5880 5882 5884 5885 5886 5887 5889 5889 5890 5892 5892 5893 5894 5893 5894 5895 5896 5898 5901 5902 5903 5905 5905 5906 5907 5907 5908 5909 5910 5912 5913 5914
5800 5799 5798 5796 5795 5793 5792 5790 5790 5789 5788 5788 5788 5788 5788 5789 5789 5790 5791 5793 5795 5796 5798 5799 5802 5804 5805 5809 5811 5813 5816 5819 5822 5825 5827 5830 5833 5836 5838 5840 5843 5845 5848 5851 5853 5855 5857 5859 5862 5864 5867 5870 5872 5874 5876 5878 5880 5881 5883 5884 5885 5886 5887 5888 5889 5890 5891 5892 5894 5893 5894 5895 5896 5898 5900 5901 5903 5904 5905 5906 5907 5908 5908 5909 5910 5911 5912 5914
5797 5795 5794 5793 5791 5789 5788 5786 5785 5784 5783 5783 5783 5783 5783 5784 5784 5785 5786 5788 5790 5791 5792 5795 5797 5798 5800 5804 5806 5809 5813 5816 5819 5821 5824 5827 5830 5833 5836 5838 5841 5843 5845 5848 5850 5852 5854 5857 5859 5861 5864 5867 5871 5874 5875 5877 5878 5879 5881 5883 5884 5885 5886 5888 5888 5888 5891 5892 5892 5892 5893 5894 5896 5898 5898 5900 5902 5904 5905 5906 5907 5908 5908 5909 5910 5911 5912 5913
5793 5791 5790 5789 5787 5785 5784 5782 5780 5778 5777 5777 5778 5778 5779 5779 5779 5780 5781 5783 5784 5786 5788 5791 5793 5794 5797 5800 5802 5807 5810 5812 5815 5818 5821 5824 5827 5830 5833 5835 5838 5840 5843 5845 5848 5850 5852 5855 5857 5860 5863 5866 5869 5872 5873 5874 5875 5877 5879 5882 5883 5884 5884 5887 5887 5887 5890 5891 5890 5890 5891 5893 5895 5896 5897 5899 5901 5903 5904 5906 5907 5908 5909 5909 5909 5911 5912 5913
5790 5788 5787 5785 5783 5781 5779 5777 5775 5773 5772 5772 5773 5773 5773 5774 5774 5775 5777 5778 5779 5782 5784 5786 5788 5789 5791 5795 5800 5804 5806 5808 5811 5815 5818 5821 5824 5827 5830 5832 5835 5837 5840 5843 5846 5848 5850 5852 5855 5859 5862 5864 5867 5869 5870 5871 5874 5875 5878 5881 5884 5884 5883 5884 5886 5887 5888 5889 5889 5890 5891 5892 5893 5895 5896 5898 5900 5901 5903 5904 5906 5907 5908 5908 5909 5910 5912 5913
5787 5785 5783 5781 5779 5777 5774 5772 5770 5769 5768 5768 5768 5767 5768 5769 5769 5770 5772 5772 5774 5777 5779 5781 5783 5784 5788 5793 5797 5799 5802 5805 5808 5812 5815 5818 5821 5825 5827 5830 5832 5835 5837 5840 5843 5846 5848 5851 5854 5856 5858 5860 5862 5864 5866 5870 5873 5875 5877 5879 5883 5883 5881 5883 5886 5886 5887 5888 5889 5890 5890 5891 5892 5893 5895 5897 5899 5900 5902 5904 5905 5906 5907 5907 5908 5909 5911 5912
5783 5781 5778 5776 5774 5771 5769 5767 5765 5764 5763 5763 5763 5762 5763 5763 5764 5765 5767 5767 5769 5771 5774 5776 5778 5781 5785 5789 5791 5795 5798 5801 5804 5808 5812 5815 5818 5821 5824 5827 5830 5832 5834 5837 5841 5844 5847 5850 5852 5853 5855 5857 5859 5862 5866 5870 5872 5874 5876 5878 5881 5881 5882 5884 5885 5885 5887 5888 5890 5890 5889 5890 5891 5893 5895 5896 5898 5900 5902 5903 5904 5905 5906 5906 5907 5908 5910 5912
5780 5777 5774 5772 5769 5767 5765 5762 5760 5759 5759 5758 5758 5758 5758 5758 5759 5761 5762 5763 5764 5767 5769 5771 5774 5777 5780 5783 5787 5792 5794 5796 5800 5804 5808 5812 5814 5817 5822 5825 5827 5829 5832 5835 5839 5843 5845 5848 5849 5850 5851 5854 5858 5863 5866 5868 5870 5872 5874 5877 5879 5880 5882 5882 5882 5885 5887 5888 5889 5889 5889 5890 5891 5892 5894 5895 5897 5900 5901 5902 5902 5903 5905 5905 5906 5908 5910 5911
5777 5774 5771 5768 5765 5763 5760 5758 5756 5755 5755 5754 5754 5754 5754 5754 5756 5757 5758 5760 5761 5763 5765 5767 5771 5773 5776 5781 5786 5788 5790 5792 5796 5800 5804 5807 5810 5815 5820 5823 5825 5827 5829 5833 5837 5840 5843 5844 5845 5846 5849 5854 5858 5861 5864 5866 5868 5870 5872 5874 5877 5879 5881 5880 5881 5885 5887 5888 5889 5888 5888 5890 5891 5892 5894 5895 5897 5898 5899 5900 5901 5903 5905 5905 5907 5908 5910 5911
5774 5771 5768 5765 5762 5759 5757 5755 5754 5753 5752 5751 5751 5751 5751 5751 5753 5754 5756 5758 5758 5759 5762 5764 5768 5770 5774 5779 5781 5784 5787 5789 5793 5797 5801 5803 5806 5811 5815 5818 5821 5823 5826 5831 5834 5837 5839 5839 5840 5843 5848 5851 5854 5857 5860 5863 5865 5867 5869 5873 5875 5875 5877 5879 5881 5885 5886 5887 5888 5888 5888 5889 5890 5891 5892 5893 5895 5896 5897 5899 5901 5903 5905 5905 5906 5908 5910 5912
5772 5768 5765 5762 5759 5757 5755 5753 5752 5750 5749 5749 5748 5748 5748 5749 5751 5752 5754 5757 5757 5756 5759 5761 5764 5766 5769 5771 5776 5782 5785 5786 5792 5796 5798 5801 5804 5808 5811 5813 5817 5820 5823 5827 5830 5833 5834 5835 5837 5842 5845 5847 5851 5855 5858 5860 5863 5866 5869 5872 5872 5871 5874 5877 5880 5884 5885 5885 5886 5887 5888 5889 5889 5890 5890 5890 5892 5895 5896 5898 5900 5902 5903 5904 5906 5907 5909 5911
5769 5766 5763 5760 5757 5755 5753 5751 5750 5749 5748 5747 5746 5746 5747 5748 5749 5751 5753 5756 5755 5754 5756 5758 5760 5762 5764 5768 5774 5778 5778 5782 5788 5792 5795 5799 5802 5807 5810 5812 5816 5819 5821 5825 5829 5830 5831 5832 5836 5840 5843 5846 5849 5852 5855 5858 5862 5864 5865 5866 5867 5870 5873 5875 5878 5882 5883 5884 5886 5886 5887 5888 5889 5889 5889 5889 5891 5894 5896 5898 5899 5900 5902 5904 5905 5907 5909 5910
5767 5764 5761 5758 5756 5754 5752 5750 5748 5747 5746 5745 5745 5745 5746 5747 5748 5750 5752 5752 5752 5753 5755 5757 5760 5762 5765 5769 5772 5773 5774 5779 5782 5785 5790 5795 5798 5802 5805 5808 5813 5816 5819 5825 5828 5828 5829 5831 5835 5839 5842 5843 5846 5850 5852 5855 5860 5862 5860 5861 5864 5867 5871 5874 5876 5879 5881 5882 5885 5886 5886 5887 5887 5887 5888 5889 5890 5893 5895 5897 5899 5900 5901 5903 5904 5906 5909 5910
5765 5762 5759 5757 5755 5753 5751 5749 5747 5746 5745 5744 5744 5744 5745 5746 5747 5749 5750 5750 5751 5752 5754 5756 5758 5760 5764 5767 5769 5772 5775 5777 5780 5784 5788 5791 5795 5799 5802 5806 5809 5812 5817 5822 5822 5823 5825 5829 5834 5837 5837 5839 5844 5846 5847 5852 5858 5858 5856 5860 5864 5866 5870 5873 5875 5877 5879 5881 5883 5885 5886 5886 5885 5885 5887 5888 5890 5891 5893 5895 5897 5898 5900 5902 5904 5906 5908 5909
5763 5761 5758 5756 5754 5752 5750 5748 5746 5745 5744 5743 5743 5743 5744 5745 5746 5748 5749 5750 5750 5751 5753 5755 5756 5759 5763 5766 5769 5771 5774 5776 5781 5786 5788 5790 5793 5797 5800 5804 5807 5809 5813 5817 5818 5819 5822 5826 5830 5830 5831 5836 5839 5839 5843 5850 5854 5852 5853 5861 5865 5868 5871 5873 5874 5876 5877 5879 5883 5885 5886 5886 5884 5883 5885 5887 5889 5890 5891 5893 5894 5897 5899 5901 5903 5905 5906 5908
5762 5760 5758 5756 5754 5752 5750 5749 5747 5745 5744 5743 5743 5743 5744 5745 5746 5747 5748 5749 5750 5751 5753 5754 5756 5759 5762 5765 5768 5770 5773 5777 5780 5783 5786 5790 5793 5795 5799 5803 5807 5810 5813 5815 5817 5818 5821 5823 5824 5827 5831 5835 5837 5839 5845 5850 5849 5849 5855 5862 5865 5868 5869 5870 5872 5874 5875 5878 5882 5884 5885 5884 5881 5882 5884 5886 5888 5889 5890 5892 5893 5895 5897 5899 5901 5903 5905 5907
5761 5759 5757 5755 5754 5752 5750 5749 5747 5745 5744 5744 5743 5743 5744 5745 5746 5747 5748 5749 5750 5751 5752 5754 5758 5761 5763 5766 5768 5770 5773 5776 5779 5781 5784 5787 5790 5793 5796 5798 5802 5806 5811 5815 5816 5817 5819 5820 5822 5827 5831 5833 5837 5842 5845 5847 5848 5851 5857 5861 5864 5866 5867 5869 5872 5873 5875 5879 5881 5883 5884 5881 5879 5881 5883 5885 5887 5889 5890 5891 5893 5895 5896 5897 5899 5901 5903 5905
5760 5758 5756 5755 5753 5751 5750 5749 5747 5746 5745 5744 5743 5743 5744 5745 5746 5747 5747 5748 5750 5751 5751 5754 5758 5762 5765 5767 5768 5769 5772 5774 5777 5779 5781 5785 5788 5791 5794 5796 5799 5802 5808 5814 5815 5814 5818 5820 5821 5825 5828 5831 5837 5839 5839 5841 5846 5851 5855 5859 5862 5865 5866 5869 5871 5873 5877 5879 5880 5882 5882 5879 5878 5880 5882 5884 5886 5888 5889 5891 5892 5894 5895 5895 5897 5900 5902 5904
5759 5757 5756 5754 5752 5751 5750 5749 5747 5746 5745 5744 5744 5744 5745 5745 5746 5746 5746 5747 5750 5751 5752 5755 5759 5762 5764 5765 5766 5769 5771 5773 5775 5779 5782 5786 5789 5790 5792 5794 5797 5800 5804 5810 5813 5814 5817 5816 5817 5822 5825 5829 5833 5834 5836 5840 5844 5848 5851 5855 5859 5862 5866 5869 5872 5874 5878 5880 5880 5878 5877 5876 5876 5878 5881 5883 5885 5887 5888 5890 5891 5893 5894 5894 5896 5897 5900 5903
5758 5757 5755 5753 5752 5750 5749 5749 5747 5746 5745 5744 5744 5744 5745 5745 5745 5746 5746 5748 5750 5752 5754 5757 5760 5762 5763 5763 5765 5767 5769 5771 5774 5778 5781 5783 5785 5786 5787 5789 5793 5797 5800 5805 5810 5816 5816 5812 5814 5820 5823 5827 5831 5832 5836 5840 5843 5846 5850 5853 5857 5859 5862 5867 5871 5874 5876 5879 5878 5874 5872 5874 5875 5876 5879 5881 5884 5886 5887 5888 5890 5891 5892 5894 5895 5895 5897 5901
5758 5757 5755 5753 5752 5750 5749 5748 5747 5746 5745 5745 5744 5744 5745 5745 5745 5746 5747 5749 5751 5753 5756 5759 5760 5762 5763 5764 5765 5766 5768 5771 5774 5776 5778 5779 5781 5783 5785 5789 5793 5796 5799 5802 5806 5813 5814 5810 5813 5818 5820 5824 5829 5830 5834 5839 5840 5844 5848 5851 5853 5854 5855 5860 5866 5870 5873 5877 5877 5871 5870 5874 5874 5874 5876 5878 5882 5884 5885 5887 5888 5890 5892 5893 5894 5895 5895 5898
5757 5756 5755 5754 5752 5750 5749 5748 5747 5747 5746 5745 5744 5745 5745 5745 5745 5746 5748 5750 5752 5754 5757 5760 5760 5762 5764 5765 5765 5767 5769 5772 5774 5776 5776 5777 5779 5781 5784 5787 5790 5794 5798 5801 5803 5807 5810 5809 5811 5815 5818 5822 5826 5828 5833 5837 5838 5838 5841 5844 5848 5852 5855 5858 5862 5867 5870 5875 5875 5869 5868 5871 5871 5870 5872 5875 5879 5881 5884 5886 5887 5889 5890 5892 5893 5894 5895 5897
5757 5756 5755 5754 5752 5750 5749 5748 5748 5748 5746 5745 5745 5746 5746 5746 5746 5747 5749 5751 5752 5754 5756 5758 5759 5761 5764 5765 5765 5766 5770 5772 5774 5775 5775 5776 5778 5780 5783 5786 5789 5792 5795 5797 5799 5802 5806 5809 5810 5811 5815 5820 5823 5826 5830 5834 5836 5837 5840 5843 5845 5848 5854 5858 5861 5864 5868 5872 5873 5867 5864 5866 5867 5867 5868 5872 5876 5880 5882 5884 5886 5887 5889 5890 5892 5893 5895 5897
5757 5756 5755 5754 5753 5751 5749 5749 5748 5748 5747 5746 5747 5747 5746 5747 5747 5748 5750 5751 5752 5753 5754 5756 5759 5761 5763 5764 5765 5766 5768 5771 5772 5773 5773 5775 5777 5779 5781 5784 5787 5791 5793 5796 5798 5800 5803 5807 5808 5809 5814 5818 5820 5822 5825 5829 5832 5835 5840 5843 5843 5846 5852 5855 5858 5861 5865 5870 5873 5867 5860 5861 5865 5865 5865 5870 5875 5878 5880 5882 5883 5885 5887 5889 5891 5892 5894 5896
5756 5756 5755 5754 5753 5751 5750 5749 5748 5748 5748 5748 5747 5747 5747 5747 5748 5749 5750 5751 5753 5753 5754 5756 5758 5760 5761 5763 5764 5766 5767 5769 5770 5770 5772 5773 5776 5778 5780 5783 5786 5789 5792 5794 5797 5798 5801 5805 5808 5810 5813 5814 5814 5817 5822 5825 5826 5830 5835 5840 5843 5847 5850 5851 5854 5858 5861 5866 5870 5865 5858 5858 5861 5863 5864 5868 5873 5875 5877 5879 5881 5883 5885 5887 5889 5891 5893 5894
5756 5756 5755 5755 5754 5752 5751 5749 5749 5749 5748 5748 5748 5748 5747 5748 5749 5750 5751 5752 5753 5754 5754 5755 5757 5758 5760 5762 5763 5765 5766 5768 5768 5770 5771 5773 5775 5777 5779 5782 5784 5787 5789 5791 5794 5796 5800 5804 5808 5809 5808 5809 5813 5818 5821 5822 5825 5828 5831 5834 5839 5843 5846 5850 5854 5855 5855 5860 5863 5859 5854 5854 5856 5860 5863 5866 5869 5872 5874 5876 5879 5881 5882 5884 5887 5889 5890 5892
5756 5755 5755 5755 5754 5753 5751 5750 5750 5749 5748 5748 5748 5748 5748 5748 5749 5750 5751 5752 5753 5754 5755 5756 5756 5758 5759 5760 5762 5764 5765 5766 5767 5769 5770 5772 5774 5777 5779 5781 5783 5785 5787 5790 5792 5796 5799 5802 5804 5805 5806 5809 5812 5816 5818 5819 5823 5828 5829 5830 5833 5836 5839 5844 5847 5847 5850 5856 5858 5856 5852 5851 5853 5856 5860 5863 5865 5868 5870 5872 5876 5878 5880 5882 5884 5886 5888 5890
5756 5755 5755 5755 5754 5753 5752 5751 5751 5749 5748 5748 5748 5748 5748 5749 5749 5750 5751 5752 5753 5754 5755 5756 5757 5758 5759 5760 5761 5763 5764 5765 5767 5768 5770 5772 5774 5776 5778 5780 5782 5784 5786 5789 5792 5795 5797 5798 5801 5803 5806 5809 5810 5812 5815 5817 5820 5822 5823 5826 5829 5831 5834 5837 5840 5842 5846 5850 5854 5853 5849 5848 5851 5854 5856 5859 5861 5863 5866 5869 5873 5876 5877 5879 5881 5883 5885 5887
5756 5755 5754 5754 5754 5753 5752 5752 5751 5750 5749 5748 5748 5748 5748 5749 5750 5750 5751 5752 5753 5754 5755 5756 5757 5758 5760 5761 5761 5763 5764 5765 5766 5768 5769 5771 5773 5775 5777 5779 5781 5783 5785 5788 5790 5792 5794 5796 5799 5801 5803 5805 5807 5809 5811 5813 5816 5817 5819 5824 5828 5829 5832 5835 5838 5841 5843 5845 5848 5847 5842 5843 5848 5851 5853 5856 5858 5860 5863 5866 5870 5873 5874 5877 5879 5881 5882 5884
5756 5755 5754 5754 5753 5753 5752 5752 5752 5751 5750 5749 5748 5748 5748 5749 5750 5751 5751 5752 5753 5754 5755 5756 5757 5758 5759 5760 5761 5763 5764 5765 5766 5767 5768 5770 5772 5774 5776 5777 5779 5781 5784 5786 5788 5790 5792 5795 5797 5799 5799 5801 5803 5805 5808 5811 5814 5815 5818 5822 5825 5826 5829 5833 5835 5836 5840 5843 5843 5841 5840 5841 5845 5849 5851 5853 5855 5857 5860 5863 5867 5869 5871 5873 5876 5877 5879 5881
5755 5755 5754 5753 5753 5752 5752 5752 5752 5751 5751 5750 5749 5749 5749 5749 5749 5750 5751 5752 5753 5754 5755 5756 5757 5758 5759 5760 5761 5762 5763 5764 5766 5766 5768 5769 5771 5773 5774 5776 5778 5780 5782 5784 5786 5788 5791 5792 5794 5796 5797 5799 5801 5803 5807 5810 5811 5813 5816 5819 5821 5824 5826 5829 5830 5831 5836 5839 5838 5838 5840 5840 5842 5846 5848 5850 5853 5855 5857 5860 5862 5865 5867 5869 5872 5874 5876 5877
5755 5754 5753 5753 5752 5752 5752 5751 5751 5751 5751 5751 5750 5750 5750 5749 5750 5750 5750 5751 5752 5753 5754 5755 5756 5757 5758 5759 5760 5762 5763 5764 5765 5766 5767 5769 5770 5772 5773 5775 5777 5778 5780 5782 5784 5787 5788 5789 5791 5793 5795 5797 5800 5802 5804 5806 5808 5811 5813 5815 5817 5820 5822 5823 5825 5828 5833 5836 5835 5835 5837 5836 5837 5842 5845 5847 5849 5851 5853 5855 5857 5860 5863 5865 5867 5870 5872 5874
5754 5754 5753 5752 5752 5752 5751 5751 5751 5751 5751 5751 5751 5751 5751 5751 5751 5751 5751 5751 5751 5752 5753 5754 5755 5756 5757 5758 5759 5760 5762 5763 5764 5765 5767 5768 5769 5771 5771 5773 5775 5776 5779 5780 5782 5785 5786 5786 5789 5792 5793 5795 5797 5800 5801 5804 5806 5808 5809 5812 5814 5816 5817 5819 5822 5825 5829 5832 5832 5833 5833 5831 5833 5839 5842 5844 5845 5846 5849 5851 5853 5856 5859 5861 5863 5866 5868 5870
5753 5753 5753 5752 5752 5751 5751 5750 5750 5750 5750 5751 5751 5751 5751 5752 5752 5752 5752 5752 5752 5752 5752 5753 5754 5755 5756 5757 5758 5759 5760 5762 5763 5764 5766 5767 5768 5769 5770 5772 5773 5775 5777 5778 5780 5782 5783 5785 5787 5790 5791 5792 5794 5797 5798 5801 5803 5804 5806 5808 5810 5812 5814 5816 5819 5821 5824 5828 5829 5829 5829 5828 5830 5835 5838 5840 5841 5842 5845 5847 5850 5852 5855 5857 5859 5862 5864 5866
5753 5752 5752 5752 5751 5751 5750 5750 5750 5750 5750 5750 5750 5751 5751 5751 5752 5752 5752 5753 5753 5753 5753 5753 5754 5755 5755 5756 5757 5758 5759 5760 5762 5763 5764 5765 5767 5768 5769 5771 5772 5774 5775 5777 5779 5780 5781 5783 5785 5787 5788 5789 5790 5793 5795 5797 5799 5801 5802 5805 5807 5808 5810 5812 5814 5816 5819 5822 5825 5825 5825 5824 5826 5830 5834 5835 5836 5838 5841 5843 5845 5848 5850 5853 5855 5857 5860 5862
5752 5752 5751 5751 5751 5750 5750 5750 5749 5749 5749 5749 5749 5750 5750 5751 5751 5752 5752 5753 5753 5753 5754 5754 5755 5755 5756 5756 5757 5758 5759 5760 5761 5762 5763 5764 5766 5767 5768 5769 5770 5772 5773 5775 5777 5778 5779 5781 5783 5785 5786 5785 5787 5790 5791 5793 5796 5796 5797 5800 5803 5804 5806 5808 5810 5813 5816 5819 5821 5821 5820 5820 5823 5827 5829 5829 5831 5834 5837 5839 5841 5844 5846 5848 5851 5853 5855 5857